Location: Unspecified
(0.0000°N, 0.0000°E)
Time: 23:18:41
(UTC+00:00)

Envisat - Pass Details

Date: 20 January 2022
Orbit: 764 x 766 km, 98.2° (Epoch: 27 January)

Event Time Altitude Azimuth Distance (km) Brightness Sun altitude
Rises 03:17:12 0° 53° (NE) 3,216 6.5 -40.2°
Reaches altitude 10° 03:21:37 10° 90° (E) 2,296 6.0 -39.2°
Maximum altitude 03:22:44 11° 103° (ESE) 2,248 6.1 -39.0°
Drops below altitude 10° 03:23:52 10° 116° (ESE) 2,298 6.2 -38.7°
Sets 03:28:17 0° 152° (SSE) 3,228 6.9 -37.7°
